Regional Weather Roundup
Issued by NWS Albany, NY

Home | Current Version | Previous Version | Graphics & Text | Print | Product List | Glossary On
Versions: 1 2 3 4 5 6 7 8 9 10 11 12 13 14 15 16 17 18 19 20 21 22 23 24 25 26 27
000
ASUS41 KALY 282010
RWRALY

NEW YORK STATE HOURLY WEATHER ROUNDUP
NATIONAL WEATHER SERVICE ALBANY NY
400 PM EDT THU JUL 28 2016

NOTE: "FAIR" INDICATES FEW OR NO CLOUDS BELOW 12,000 FEET WITH NO
SIGNIFICANT WEATHER AND/OR NO OBSTRUCTIONS TO VISIBILITY.

NYZ032-033-038>043-046>054-057>066-NYZ062>081-082-084-282100-
EAST


CITY           SKY/WX    TMP DP  RH WIND       PRES   REMARKS
ALBANY         CLOUDY    90  64  42 W9        29.84S HX  91
GLENS FALLS    CLOUDY    82  66  58 N5        29.85S
POUGHKEEPSIE   MOSUNNY   94  60  32 CALM      29.82F HX  94
NEWBURGH       MOSUNNY   91  59  33 CALM      29.86F HX  90
MONTGOMERY     MOSUNNY   92  62  36 CALM      29.84F HX  92
WHITE PLAINS   MOSUNNY   89  63  41 SE12      29.85F HX  90
ISLIP          PTSUNNY   85  74  69 S14       29.87S HX  92
NEW YORK CITY  PTSUNNY   88  70  55 S21       29.85R HX  93
CENTRAL PARK   PTSUNNY   87  67  51 VRB3      29.88R HX  90
$$

NYZ005>009-017-018-044>046-055-056-282100-
CENTRAL


CITY           SKY/WX    TMP DP  RH WIND       PRES   REMARKS
FULTON         CLOUDY    85  61  44 NW7       29.88F
SYRACUSE       CLOUDY    85  67  54 NW9       29.86S
ROME           CLOUDY    85  65  51 W10       29.87F
ELMIRA         CLOUDY    87  58  37 N5        29.87F
BINGHAMTON     CLOUDY    84  57  39 VRB3      29.91F
MONTICELLO     PTSUNNY   84  63  48 SW5       29.92S
$$

NYZ026>034-041>043-087-282100-
NORTH


CITY           SKY/WX    TMP DP  RH WIND       PRES   REMARKS
WATERTOWN      MOSUNNY   83  63  50 W7        29.86F
FORT DRUM      NOT AVBL
MASSENA        PTSUNNY   81  62  52 N5        29.89S
SARANAC LAKE   LGT RAIN  65  61  87 N6        29.94R
PLATTSBURGH    CLOUDY    72  69  90 S5        29.89R
$$

NYZ001>004-010>016-019>021-085-282100-
WEST


CITY           SKY/WX    TMP DP  RH WIND       PRES   REMARKS
NIAGARA FALLS  CLOUDY    85  60  42 NE13      29.89R
BUFFALO        CLOUDY    83  65  54 NE5       29.89S
DUNKIRK        CLOUDY    81  66  60 N6        29.89F
JAMESTOWN      CLOUDY    79  63  57 N5        29.94F
WELLSVILLE     CLOUDY    80  59  48 NE5       29.97S
ROCHESTER      CLOUDY    85  59  41 NE8       29.89S
PENN YAN       PTSUNNY   84  65  52 N5        29.90F
$$

             KEY
       WCI = WIND CHILL INDEX
       VSB = VISIBILITY
       HX  = HEAT INDEX
$$




USA.gov is the U.S. government's official web portal to all federal, state and local government web resources and services.